Theta_e
310 310 310 309 309 309 309 309 310 311 313 315 317 318 320 322 324 325 326 326 325 326 326 326 327 328 328 330 330 329 328 327 327 326 326 325 324 320 318 316 316 314 315 315 313 313 310 311 310 308 306 305 302 301 299 299 298 297 296 296 296 296
309 308 308 308 307 307 308 308 309 309 311 312 314 317 319 321 323 324 323 324 324 325 326 326 326 327 329 329 328 327 326 326 326 326 325 325 321 319 316 313 312 312 312 311 310 308 308 308 307 306 304 302 300 298 297 297 297 295 294 294 294 295
307 307 307 307 306 306 306 307 307 308 309 310 313 314 316 318 321 321 321 321 322 323 325 326 327 327 327 327 327 326 327 326 324 325 324 322 317 317 313 311 310 309 309 308 307 306 305 305 304 303 301 299 297 296 296 295 294 293 292 292 293 293
305 306 305 305 304 303 303 304 305 306 307 310 311 312 314 315 317 318 318 319 320 321 322 323 324 325 325 325 325 325 326 325 323 322 320 319 314 312 311 309 308 307 307 307 306 305 305 304 302 300 299 297 295 295 296 294 293 292 291 291 290 292
305 305 304 303 303 303 303 304 305 307 308 310 311 312 313 316 316 316 316 317 318 319 320 320 321 322 321 322 322 322 321 321 319 318 316 314 310 308 310 308 307 306 306 305 304 304 303 303 300 299 298 295 294 293 294 293 292 291 290 289 290 290
304 303 303 303 302 303 304 305 307 308 309 309 310 310 312 314 314 314 314 314 314 313 313 316 317 317 318 318 319 319 317 315 313 311 312 309 306 305 303 304 305 304 305 304 302 302 301 300 299 297 296 295 293 292 292 292 291 291 290 290 290 290
302 303 304 304 304 304 305 306 307 308 308 308 308 309 310 311 312 312 311 311 311 311 311 311 312 313 314 315 314 313 310 308 306 306 307 305 303 303 301 299 300 301 302 301 301 300 300 299 298 297 295 293 292 292 291 291 291 290 290 290 289 289
304 304 304 305 305 304 305 306 307 307 308 308 308 308 308 309 309 309 309 309 309 310 309 309 308 310 311 310 307 306 303 301 301 302 300 301 301 299 299 300 299 299 299 300 300 299 299 298 297 295 293 292 292 291 291 291 291 290 290 290 289 289
303 303 304 305 305 305 305 306 306 305 306 307 307 308 307 306 306 307 307 307 307 307 308 307 307 306 304 304 301 298 297 298 297 298 298 297 298 297 296 297 298 297 298 299 299 298 297 296 295 293 292 291 291 290 290 290 289 289 289 288 289 288
304 303 304 304 304 305 305 305 304 304 304 304 306 306 306 305 304 304 305 305 305 306 306 307 304 303 301 298 297 297 295 295 295 296 295 296 297 297 297 297 297 295 295 294 295 296 295 295 293 292 291 291 290 290 289 289 288 288 287 287 287 287
306 305 304 304 304 303 303 303 303 303 303 304 304 304 305 305 303 303 303 302 302 303 303 302 301 301 298 295 295 294 294 294 294 294 294 294 295 296 297 298 298 296 295 293 293 293 293 293 292 291 290 290 289 289 289 288 288 287 286 286 286 286
307 306 306 304 304 303 303 303 303 302 302 302 303 303 303 302 301 301 301 300 300 299 298 297 294 294 293 294 294 293 293 293 293 293 292 293 293 293 292 293 294 295 295 293 292 292 292 291 291 288 290 290 289 289 289 288 287 286 286 285 285 284
306 306 305 305 304 304 304 303 303 303 302 302 302 302 302 301 299 298 298 299 297 295 295 294 293 292 292 293 292 292 292 292 292 291 291 291 291 291 291 292 292 291 292 292 291 290 290 290 289 288 291 291 291 289 288 287 286 286 285 284 284 283
306 306 305 306 305 305 304 303 303 303 302 302 301 301 298 298 299 298 297 297 294 293 293 293 293 292 292 291 291 291 291 290 290 291 291 291 290 289 290 290 291 291 291 291 290 289 289 289 288 290 291 291 291 289 288 287 286 286 285 284 284 283
308 309 308 307 306 305 304 304 303 302 303 302 302 300 296 296 297 298 297 294 293 293 293 292 291 292 292 291 290 290 290 289 289 289 289 290 290 289 289 289 289 289 289 289 289 288 288 287 289 290 291 290 290 290 288 287 286 285 285 284 284 283
308 308 307 307 307 306 305 304 303 303 303 302 300 297 296 296 296 298 296 294 293 293 292 291 291 290 292 291 290 290 289 289 289 289 288 289 288 288 288 288 288 288 288 288 288 287 287 287 288 290 290 290 290 290 288 286 286 285 285 284 283 283
307 308 306 305 305 305 304 302 302 302 301 300 298 297 296 296 296 296 296 294 293 292 291 291 291 291 290 290 289 288 288 289 288 288 288 288 287 287 287 288 287 287 287 287 287 287 286 286 289 290 290 290 290 291 288 286 285 284 284 284 283 283
306 305 306 305 304 303 303 302 301 300 299 299 298 296 296 296 296 296 296 295 294 293 292 292 291 291 290 289 288 288 288 288 288 287 287 287 287 287 287 287 287 286 286 287 287 286 286 286 289 289 289 290 290 289 286 285 284 283 283 282 282 282
307 306 305 304 303 302 302 301 299 298 298 297 297 296 296 296 296 296 295 294 294 293 293 292 291 290 288 288 287 287 287 287 287 287 287 286 287 286 286 286 286 286 286 286 286 286 286 286 288 289 289 289 289 287 285 284 284 283 282 282 282 282
303 301 303 300 300 300 300 299 298 297 296 296 296 295 294 294 295 296 295 295 294 293 293 292 291 289 288 287 287 287 287 287 287 286 286 286 286 286 286 286 286 286 286 286 286 287 286 286 287 288 289 289 288 286 284 284 283 282 281 281 281 281
300 299 299 299 298 299 298 297 297 296 295 295 295 294 293 293 294 294 295 295 295 294 293 292 291 289 288 287 287 287 287 287 286 286 286 286 286 286 286 286 285 285 286 286 286 286 286 286 286 288 288 288 287 285 284 284 283 281 281 280 280 280
296 296 298 298 298 297 296 296 296 294 294 294 294 293 293 293 294 295 295 295 294 293 292 290 289 288 288 287 287 287 287 287 286 285 285 286 286 285 285 285 285 285 285 285 286 286 286 285 285 286 288 287 287 286 284 284 282 281 280 280 279 279
296 297 297 297 295 295 295 295 294 293 293 293 292 291 293 294 295 294 294 294 292 292 290 289 288 288 287 287 287 287 287 286 286 285 285 285 285 285 284 284 284 284 284 285 285 285 286 286 285 285 287 287 286 286 285 283 283 282 281 280 279 279
294 294 293 293 294 294 294 294 292 292 292 292 291 292 294 293 294 294 293 293 292 290 288 288 287 288 287 287 287 286 285 286 285 285 285 285 284 283 283 283 283 283 283 283 284 284 285 285 285 285 286 286 286 286 286 284 283 283 281 280 279 279
293 292 291 291 292 292 292 291 290 290 289 291 291 292 293 292 292 291 290 289 289 288 287 287 287 287 287 286 286 286 285 285 284 284 284 284 283 283 282 282 282 282 281 282 282 283 284 285 285 285 285 285 286 286 286 285 284 285 282 281 279 279
291 290 290 290 291 290 290 289 289 289 289 289 292 291 291 291 290 289 288 287 287 286 286 286 286 286 286 286 286 285 284 283 284 283 283 283 282 282 281 281 281 281 280 280 281 282 283 284 285 285 284 284 285 286 286 285 285 285 282 282 281 281
289 288 288 289 289 290 288 288 287 287 287 289 289 288 288 288 287 287 287 286 286 286 285 285 285 285 285 285 285 284 284 283 283 282 282 282 282 281 281 280 280 280 280 280 280 281 282 282 284 284 284 284 284 285 285 285 284 284 283 281 281 280
287 287 286 287 288 289 288 288 287 286 287 288 288 288 287 286 286 286 285 285 285 285 285 284 284 284 285 285 285 284 284 283 282 283 282 281 282 282 281 281 280 280 280 280 280 281 281 281 282 283 283 284 284 284 284 285 284 283 283 281 280 280
286 285 285 285 286 286 286 285 285 286 286 286 287 286 286 286 285 285 285 284 284 284 284 284 283 283 283 284 284 284 283 282 282 282 281 281 281 281 281 281 280 280 280 280 280 280 280 280 281 281 282 283 283 283 283 283 283 283 282 280 279 279
285 285 285 285 285 284 283 282 282 283 284 285 285 285 285 285 285 285 284 283 283 283 283 284 280 282 282 283 283 283 283 282 282 282 281 281 281 281 280 281 280 279 280 280 280 280 280 279 279 280 281 282 282 282 282 282 282 281 281 279 278 278
284 284 284 283 283 282 281 280 280 281 281 283 284 285 285 284 283 282 282 282 282 282 282 283 282 283 282 282 282 283 283 282 282 282 282 283 284 283 282 281 281 281 281 281 281 280 279 279 279 279 282 282 283 282 282 281 281 281 281 280 279 278
283 283 283 282 281 280 279 278 279 279 280 281 282 283 283 282 282 281 281 281 281 281 281 281 281 281 281 281 281 281 281 280 282 282 282 282 283 283 282 283 282 282 282 282 282 282 280 279 279 282 282 282 283 283 283 282 283 282 281 280 281 278
282 282 280 279 278 277 277 276 277 277 277 278 280 282 282 283 282 281 280 281 281 280 281 281 280 280 280 280 280 280 280 280 280 281 280 280 282 282 282 282 281 281 283 282 281 282 284 283 282 282 282 282 282 283 283 282 283 283 282 282 278 275
280 279 278 277 276 276 276 275 275 275 275 276 278 280 281 282 284 282 281 280 279 279 280 280 280 279 279 279 279 279 279 279 279 279 280 280 280 280 281 281 281 281 281 282 282 282 281 283 283 282 282 282 282 282 283 282 282 283 282 282 279 273
278 277 277 277 276 275 274 273 273 273 273 274 276 278 279 279 281 280 279 279 279 278 278 279 279 278 278 277 277 277 278 278 279 279 279 279 280 280 280 280 281 281 281 281 282 282 282 282 283 283 282 282 282 282 282 283 283 283 282 282 277 274
276 275 275 274 274 273 272 271 271 271 271 272 275 276 276 277 277 278 279 279 278 279 278 278 278 278 278 277 277 278 277 278 278 279 279 279 278 277 278 279 280 280 281 281 282 282 282 282 282 283 282 282 282 282 282 282 281 283 283 281 276 274
274 273 273 273 273 272 270 269 269 269 270 271 273 274 274 275 276 276 273 272 276 279 279 278 278 278 278 277 277 277 277 277 277 277 277 278 278 278 278 278 279 280 280 280 281 281 282 282 282 282 282 282 282 282 282 283 280 278 279 279 278 274
272 272 273 273 272 271 270 269 269 269 269 270 272 274 274 274 275 277 277 276 275 277 278 277 277 278 277 277 277 277 277 277 277 277 277 277 277 277 277 277 279 278 280 281 280 281 281 282 282 281 282 282 282 282 282 278 277 277 277 277 277 275
Wind_Speed
7 7 7 6 6 6 6 6 7 7 8 9 10 12 12 12 10 11 11 12 10 10 13 15 14 13 13 12 10 10 11 11 11 11 12 10 11 9 10 10 11 11 11 10 9 8 9 8 8 9 8 8 6 7 6 6 6 6 6 5 5 5
4 5 5 6 6 6 5 5 5 7 7 8 8 8 9 10 11 10 11 10 8 8 9 12 12 12 10 9 10 10 11 11 12 12 11 11 9 10 11 11 11 11 11 10 10 8 7 7 7 8 8 7 6 6 5 6 6 7 7 6 4 4
3 3 3 2 2 2 2 3 4 4 5 7 8 9 8 8 9 7 5 6 8 8 8 7 8 9 8 10 11 12 12 11 11 10 9 8 10 9 11 11 12 11 10 11 11 10 9 8 8 7 7 7 7 6 6 6 7 8 6 6 6 4
3 2 1 1 2 2 2 2 3 4 6 6 7 8 8 9 8 7 8 8 8 9 10 11 10 10 9 10 11 11 11 9 9 8 9 10 9 10 11 12 10 10 11 11 11 10 10 9 8 8 8 8 9 7 6 7 8 8 7 7 7 5
3 2 1 2 2 2 3 4 4 5 5 6 5 7 8 8 7 5 5 7 7 9 8 7 7 7 7 8 7 8 8 7 7 8 9 9 9 8 10 12 12 13 12 10 10 10 10 9 10 9 8 9 10 9 8 7 8 8 9 8 7 6
2 3 4 4 4 4 4 5 5 5 5 6 5 6 6 6 6 7 7 5 4 2 3 5 6 8 9 10 9 8 6 6 6 7 9 9 8 10 7 8 10 10 12 12 11 11 10 10 9 9 8 10 10 10 9 8 7 7 8 8 8 7
5 5 4 4 5 5 5 5 5 5 5 6 6 6 6 5 5 7 8 7 5 6 5 5 5 7 8 8 6 7 5 5 6 6 8 8 8 9 9 8 7 8 9 10 12 11 11 10 10 10 9 8 7 8 8 8 7 7 7 7 7 6
3 4 5 5 5 5 5 5 5 4 4 5 4 5 6 7 7 8 8 8 7 6 6 6 5 6 6 5 4 4 4 5 5 6 5 8 10 8 8 13 11 10 9 9 11 11 10 10 10 10 9 9 8 8 7 7 7 7 7 7 6 5
4 4 4 5 5 6 5 5 5 5 5 5 6 5 5 7 7 8 8 7 7 7 6 3 3 3 3 3 3 3 4 4 5 6 7 6 8 9 8 6 10 8 9 8 9 11 11 11 10 10 10 9 9 9 9 8 7 7 7 6 6 5
1 3 4 5 4 4 4 5 6 6 6 6 6 6 6 5 6 7 7 6 6 6 6 6 3 2 2 3 3 4 4 4 4 4 4 6 8 9 10 11 11 8 7 6 6 8 10 11 10 10 10 10 10 9 8 8 8 8 7 7 6 5
2 3 5 5 5 6 6 6 6 6 7 7 7 7 7 6 4 4 4 4 5 5 5 5 4 4 4 4 4 4 4 4 4 4 5 5 6 6 7 8 11 11 10 7 7 7 8 10 11 10 11 11 10 9 9 9 9 9 9 7 6 5
3 3 5 6 7 7 7 7 8 8 8 8 8 7 6 5 5 4 5 5 5 3 3 4 3 4 4 5 5 5 5 5 5 5 5 5 4 4 4 4 5 10 12 11 10 9 8 8 7 11 17 13 11 10 9 8 8 9 9 9 8 6
3 4 5 7 8 9 8 8 7 7 7 8 8 7 6 5 6 4 4 5 2 1 2 3 4 4 5 5 5 5 6 6 6 6 6 5 5 6 6 6 7 5 7 11 12 12 9 8 7 15 16 16 16 11 10 10 9 8 8 8 8 8
5 5 6 7 7 7 7 7 7 7 7 8 9 7 6 6 6 6 5 2 2 2 2 2 3 4 4 5 6 6 6 7 7 7 8 8 7 6 6 5 5 8 7 8 10 11 10 9 12 17 17 17 17 13 10 9 9 8 8 8 8 7
5 5 5 5 6 6 7 7 6 6 6 7 7 5 7 6 6 6 5 4 4 3 4 3 3 3 4 5 4 6 6 7 7 7 8 9 8 8 9 9 7 7 8 9 11 11 10 9 14 17 17 17 16 15 12 8 9 9 8 8 8 8
4 5 6 5 5 6 5 7 7 5 5 6 6 7 6 7 6 6 7 6 5 5 5 5 4 4 4 4 5 5 6 7 7 5 4 6 6 8 8 8 9 8 10 10 10 10 9 9 13 15 16 16 16 16 11 8 9 8 8 8 8 7
5 3 4 5 5 5 5 5 6 6 6 6 6 6 6 6 7 6 6 7 6 6 6 6 5 5 5 5 3 3 4 6 5 5 5 6 8 8 9 9 8 8 7 9 7 8 10 9 15 12 13 12 12 12 11 8 7 7 7 6 6 7
7 6 4 3 4 4 4 6 7 7 7 7 7 7 7 7 7 6 6 6 6 6 6 6 6 6 5 5 4 4 4 4 5 7 6 5 4 3 3 3 4 8 9 8 10 9 9 9 15 13 14 15 14 14 8 8 8 8 7 6 6 6
4 3 4 4 4 4 4 5 7 8 7 7 6 6 7 7 7 7 7 6 6 7 7 6 6 6 4 4 5 6 5 5 5 4 3 5 5 5 5 5 6 6 8 8 8 9 9 10 14 16 15 16 17 11 7 7 6 6 7 7 6 5
2 2 4 5 5 5 4 4 6 7 8 7 7 7 6 7 8 7 6 6 6 6 6 7 7 5 5 5 6 6 4 4 3 4 4 6 7 6 5 5 5 5 6 8 8 10 10 9 13 16 15 17 16 12 9 8 8 7 6 5 6 5
3 3 3 4 6 6 6 6 6 6 6 6 6 6 6 6 6 5 6 5 6 6 6 6 6 5 6 6 6 5 5 5 5 5 4 4 4 5 4 5 6 6 5 6 7 9 10 9 11 15 14 16 14 11 7 8 8 9 7 6 6 5
2 1 1 1 2 5 6 6 5 5 5 6 6 6 7 7 6 5 4 4 5 6 6 5 6 5 6 6 5 5 5 4 5 5 5 4 3 4 4 4 4 8 7 6 6 6 6 8 8 11 15 14 14 12 8 7 10 10 9 7 6 6
1 1 3 4 4 4 5 5 6 5 5 6 6 5 6 6 7 6 6 6 6 6 6 4 5 7 6 5 6 5 5 5 6 6 6 6 5 5 5 7 6 6 6 4 4 4 4 6 8 10 14 15 15 15 12 9 10 10 10 9 6 5
3 4 5 4 4 4 4 5 6 6 6 6 6 5 4 5 6 6 6 7 7 5 5 5 4 4 5 5 6 6 5 4 5 5 6 4 6 7 7 7 4 3 3 2 2 2 3 6 10 9 14 16 17 16 14 10 9 9 11 8 7 6
4 6 6 5 5 4 2 3 4 4 4 4 3 3 4 5 5 6 6 5 5 5 5 5 6 5 5 6 6 7 7 6 6 5 5 6 6 6 7 7 6 5 3 2 2 2 3 5 8 13 11 15 16 16 14 10 5 11 9 10 10 10
6 6 7 6 5 4 3 3 3 3 3 3 4 4 4 4 4 4 5 5 5 5 4 5 5 4 4 5 6 6 7 6 6 5 5 6 6 5 5 5 5 6 6 7 5 4 4 4 5 10 12 11 15 15 15 12 9 12 7 6 7 6
7 7 8 6 6 4 2 2 4 4 4 3 4 2 3 3 4 4 4 4 4 4 4 4 3 5 5 5 6 7 5 6 6 5 4 4 4 4 4 4 4 4 4 4 4 4 4 4 4 5 9 12 12 14 14 12 10 11 10 6 3 5
7 7 8 7 6 4 3 2 3 5 3 4 3 4 4 5 5 5 5 4 4 5 5 5 4 4 4 4 2 3 3 7 8 6 5 5 4 4 4 4 4 3 4 4 3 3 4 4 4 5 6 8 9 9 12 13 12 11 11 4 2 5
7 7 7 7 4 5 4 5 5 5 4 3 3 4 5 5 5 6 5 5 4 4 4 5 3 3 3 2 3 2 3 3 3 4 5 5 5 5 5 5 4 4 4 6 7 4 4 3 5 5 5 7 7 7 8 9 9 10 10 5 4 6
8 8 7 6 5 5 5 6 6 5 5 4 4 4 5 5 5 5 5 5 4 3 3 3 5 4 3 2 3 3 3 3 3 4 5 8 8 8 8 8 8 10 10 11 9 6 3 4 4 6 8 9 8 8 8 8 8 9 7 7 5 5
8 8 8 7 5 5 6 6 5 4 4 3 3 3 5 5 6 6 6 4 4 4 3 2 3 2 2 2 1 1 2 3 4 4 2 3 4 6 8 7 7 8 7 7 8 10 7 3 9 14 10 8 8 8 8 8 7 6 5 7 9 7
8 9 8 6 5 6 6 5 5 5 3 3 2 3 6 6 5 5 4 3 3 3 3 3 2 1 2 2 1 1 0 5 3 3 0 2 6 4 2 1 3 3 5 6 6 7 12 12 3 9 8 9 9 9 6 2 4 6 5 9 15 9
7 8 8 6 5 5 6 5 5 5 5 4 3 3 5 5 5 4 4 3 3 3 3 2 2 2 1 1 1 1 1 1 0 1 2 4 4 1 5 2 0 1 1 3 5 4 9 5 6 9 12 14 12 11 10 7 8 11 11 14 10 7
7 7 7 4 5 6 5 6 6 5 5 5 4 3 3 3 3 4 3 3 3 4 3 2 2 2 2 1 1 0 1 1 2 1 3 5 4 3 3 3 1 1 3 4 4 4 3 8 9 11 13 16 16 15 14 10 11 12 13 16 14 7
5 5 4 4 5 5 5 6 5 5 5 5 3 3 5 4 5 5 4 4 4 3 4 2 2 2 2 2 1 1 1 1 2 2 1 2 4 5 5 5 6 6 6 6 7 8 7 6 8 12 14 15 17 17 17 17 16 15 16 17 12 9
6 5 5 5 6 5 6 7 6 6 7 6 4 4 5 5 5 4 3 3 3 3 3 2 2 2 2 2 1 1 1 1 2 2 2 1 1 2 4 7 9 9 8 9 10 9 10 10 9 10 13 15 17 18 18 18 13 17 19 17 9 9
6 6 6 7 7 7 8 8 7 7 7 7 5 4 5 4 4 4 5 6 3 2 2 2 2 2 1 1 1 1 1 1 1 1 2 2 2 2 1 1 3 9 12 8 7 10 11 11 10 11 12 14 16 17 18 18 10 12 13 14 12 10
7 7 6 7 7 9 9 8 8 7 8 7 5 4 5 4 4 4 3 3 4 3 2 2 1 1 1 1 1 1 1 1 1 2 2 2 2 2 3 2 2 1 7 13 10 9 10 11 12 12 13 14 17 18 19 13 12 11 12 12 11 11
Wind_Direction
206 201 201 208 214 211 212 216 213 214 218 221 221 219 215 211 206 203 203 199 197 200 203 205 206 207 209 203 182 183 198 196 195 198 202 184 177 168 167 168 173 172 171 165 160 151 153 161 155 148 150 155 150 153 146 149 152 139 127 119 119 119
214 215 215 210 202 205 209 218 218 223 222 222 225 226 221 214 211 205 205 202 200 205 207 208 210 209 204 184 186 192 199 197 193 196 189 183 167 174 165 168 171 174 169 159 157 150 155 158 150 148 147 147 145 147 144 153 145 132 128 121 110 122
271 249 232 219 193 199 193 198 217 232 228 227 220 215 214 216 216 200 199 212 221 214 203 201 199 200 201 197 194 200 202 197 191 192 184 165 171 166 167 170 171 170 168 160 157 158 158 156 151 148 144 144 142 146 142 145 140 132 124 125 118 108
294 267 171 157 177 188 199 208 216 220 222 224 218 215 216 213 211 204 206 215 222 221 216 211 207 204 201 202 199 203 198 193 188 181 166 176 165 171 171 170 167 170 164 165 162 160 159 159 149 149 151 146 149 142 148 150 142 132 128 128 130 129
296 297 230 202 201 199 204 208 208 204 203 207 213 209 214 211 207 206 221 225 225 221 216 208 203 200 201 202 204 203 197 188 176 170 170 167 162 172 173 171 169 170 165 162 157 159 158 160 157 154 155 152 155 153 154 152 146 142 141 140 141 139
199 219 218 199 190 199 201 198 202 201 193 193 195 210 215 208 200 203 216 229 241 242 227 213 207 206 207 210 210 209 195 181 165 160 167 162 157 166 164 165 169 169 167 159 158 161 161 161 156 153 154 155 155 156 153 147 140 139 141 141 142 144
200 200 199 199 191 189 194 198 201 201 206 195 193 196 202 206 210 210 214 215 213 209 210 216 206 206 208 211 203 203 180 171 155 161 158 148 161 168 158 154 159 167 169 160 161 162 164 161 156 153 150 150 150 150 147 143 140 139 137 136 140 142
198 192 188 190 190 185 191 198 203 211 214 207 198 196 195 204 208 212 212 212 215 215 214 214 213 214 212 207 200 187 160 148 152 152 148 159 162 163 174 162 165 168 170 168 164 162 160 155 156 152 152 150 145 144 142 139 136 132 128 130 131 137
221 219 214 207 195 182 180 185 195 220 233 235 226 223 216 214 214 216 216 217 215 218 218 213 212 211 208 186 155 126 134 149 154 156 160 163 159 159 163 174 160 165 164 168 162 161 156 152 149 149 148 148 147 147 144 138 132 125 122 120 123 124
214 202 216 213 210 200 189 182 185 201 213 223 225 226 223 222 220 222 222 216 214 215 207 210 194 170 144 120 119 135 142 145 151 157 150 153 160 167 172 169 167 159 149 147 159 160 151 150 151 149 148 148 149 148 145 143 138 131 123 118 117 119
236 212 204 207 203 203 200 195 191 198 211 215 215 215 220 214 206 217 213 205 207 196 174 156 159 144 124 127 130 135 140 146 148 140 147 162 168 173 182 181 163 151 147 142 145 155 152 154 158 156 153 150 151 149 146 145 142 138 133 128 123 128
245 220 210 201 203 205 204 200 199 194 203 207 207 202 196 166 193 210 215 213 216 192 164 153 137 133 132 140 149 150 149 148 148 148 152 159 155 145 139 155 165 159 156 153 153 155 160 162 162 157 154 155 153 152 147 143 143 142 140 138 137 135
219 220 213 217 210 204 200 206 200 190 193 204 206 201 189 177 176 198 199 219 216 175 142 146 150 140 148 150 139 140 144 145 146 150 150 151 147 144 148 161 159 157 157 157 157 159 164 163 157 154 154 154 152 148 151 149 145 141 142 148 150 149
206 212 220 215 211 208 207 199 194 186 197 194 206 196 161 174 178 179 188 190 146 157 164 153 142 151 153 150 155 153 151 145 149 157 159 157 154 151 144 161 177 151 156 158 157 160 165 163 154 157 156 157 157 157 152 149 146 150 151 154 151 147
211 211 211 207 205 201 199 183 180 198 189 187 198 166 165 180 177 177 176 164 160 164 156 141 151 157 163 172 155 148 144 153 155 158 159 167 163 148 158 163 162 162 157 162 163 161 159 155 155 158 158 158 158 156 150 148 150 151 155 154 152 150
205 210 216 211 204 199 187 179 178 179 167 164 163 163 179 179 182 182 176 164 164 158 153 154 160 166 164 149 150 155 157 161 169 162 155 143 146 162 164 164 166 161 164 167 167 162 158 154 161 154 154 154 156 157 151 148 150 150 149 153 151 152
229 214 203 207 204 186 163 161 162 137 137 143 154 171 176 187 185 187 175 166 162 153 156 160 166 165 152 146 152 161 172 169 155 153 159 162 167 169 171 168 165 168 165 162 165 162 162 162 161 147 147 147 146 146 146 144 143 139 140 140 143 152
222 222 220 127 139 186 193 172 157 149 160 151 166 178 188 188 191 186 177 169 157 160 164 164 165 162 157 157 154 157 170 169 168 166 158 155 157 153 144 156 162 163 167 168 169 167 162 160 159 149 152 153 153 146 143 147 147 142 142 137 139 144
207 184 131 138 153 169 199 168 150 151 149 156 168 173 182 187 191 190 183 174 166 168 165 163 162 160 158 160 163 174 174 166 159 152 144 151 162 161 165 168 171 170 168 168 173 168 157 156 165 161 159 159 156 148 150 148 142 140 139 143 144 149
101 88 166 159 156 157 155 159 158 151 149 159 160 169 184 189 197 189 180 175 165 161 157 161 163 163 162 163 176 179 175 158 146 157 163 167 164 169 172 161 160 165 170 171 174 171 160 164 170 166 161 161 161 159 154 155 144 144 147 142 148 153
117 141 154 160 156 154 148 152 156 150 146 151 155 170 190 198 194 179 177 169 160 156 151 157 162 167 167 173 178 172 170 168 164 158 156 166 160 163 156 161 161 166 170 176 174 165 164 164 170 169 163 164 162 157 156 152 148 151 159 154 158 157
98 113 132 138 113 127 137 141 152 145 140 144 142 159 184 189 183 172 160 148 145 147 155 159 164 166 169 174 167 165 167 148 139 155 162 164 150 152 146 121 145 170 175 164 170 167 167 162 168 174 167 166 164 163 162 162 158 168 166 164 161 157
118 85 86 89 107 121 132 139 139 147 140 139 152 180 177 174 171 167 158 152 149 154 157 158 168 169 170 167 165 158 154 157 159 158 164 166 160 150 144 164 167 154 152 138 155 157 157 165 165 174 171 171 174 178 176 177 183 172 164 162 160 169
113 95 77 64 98 119 137 143 145 150 140 152 172 172 146 142 152 151 147 152 150 149 154 155 155 155 155 149 144 150 144 147 151 159 163 157 160 161 163 158 137 117 120 110 89 119 144 153 168 174 180 182 186 191 193 188 188 173 162 160 177 178
78 62 59 50 55 59 91 123 136 127 133 142 141 125 126 132 134 137 144 146 146 148 150 150 153 153 148 152 155 152 155 152 151 154 156 157 149 149 147 140 142 132 118 139 168 163 169 170 178 183 185 190 192 197 202 202 175 161 169 169 178 189
85 80 64 56 56 58 63 107 116 116 114 111 105 104 111 123 132 133 137 142 142 142 146 146 145 141 145 148 146 144 145 153 154 143 158 141 142 151 150 168 157 163 173 180 179 181 185 181 177 187 190 194 198 202 203 199 182 175 184 184 187 173
89 85 75 69 79 86 79 103 127 124 111 89 95 110 111 111 110 119 125 128 130 132 129 126 125 138 146 147 141 138 146 135 150 150 155 139 159 161 167 167 165 178 173 173 181 176 172 177 175 177 192 197 203 207 204 198 186 188 184 190 154 167
94 95 91 80 74 73 61 73 104 112 106 94 98 101 107 113 113 111 113 114 115 105 121 124 117 113 113 138 138 133 145 162 171 173 171 170 173 167 165 170 169 181 182 190 183 175 165 165 173 184 186 194 203 209 207 199 194 192 192 166 134 165
100 96 87 80 61 49 40 46 40 45 63 73 93 104 111 115 116 115 111 107 108 100 110 123 134 133 127 137 141 146 145 143 168 163 166 175 172 172 179 178 171 179 190 195 199 171 152 162 182 186 183 188 191 196 196 196 197 192 184 165 158 161
112 112 102 88 73 52 46 50 52 46 43 49 65 94 100 101 110 108 95 96 100 113 123 120 110 120 138 153 159 164 159 166 185 186 185 185 187 185 192 190 190 198 200 202 196 178 150 180 187 195 198 194 185 186 191 192 192 192 189 177 161 149
118 116 109 103 88 76 71 61 53 40 43 52 56 92 102 91 85 83 85 89 89 95 105 102 116 134 136 135 159 179 175 182 193 204 207 208 204 203 199 202 206 206 209 205 201 191 183 170 206 216 209 202 193 192 184 187 186 177 171 174 152 135
112 112 106 91 80 82 78 61 54 40 29 31 38 88 106 107 97 97 92 93 94 97 104 104 111 99 99 128 170 184 69 36 32 4 290 223 214 244 329 39 220 198 205 212 225 206 208 209 191 83 170 192 197 199 197 166 172 173 158 154 165 160
99 101 98 92 80 77 71 61 44 34 19 12 20 81 108 116 109 101 102 102 104 100 112 108 118 124 106 118 124 163 227 240 190 247 316 4 5 248 225 145 151 345 280 221 230 212 216 198 130 170 182 194 200 200 200 175 179 184 177 172 166 162
92 89 90 78 76 78 73 68 48 30 13 6 18 52 77 74 101 110 110 104 108 101 100 104 107 116 126 126 128 152 203 223 258 222 197 220 233 266 271 260 213 194 212 241 232 227 220 208 181 165 182 190 195 202 201 191 188 193 186 191 173 181
80 77 74 70 68 66 61 64 38 18 3 1 19 61 81 73 84 100 101 107 114 113 111 114 118 128 133 134 144 170 193 231 235 263 256 183 221 238 250 259 256 242 234 231 233 228 231 225 214 189 183 190 195 198 202 208 210 207 202 195 195 210
74 69 59 58 57 61 54 50 25 11 352 348 9 57 81 83 85 93 109 121 118 120 126 124 123 132 126 140 141 171 196 219 253 275 294 266 176 191 236 243 244 244 243 242 236 234 231 229 213 198 190 190 194 198 201 203 208 210 208 205 206 204
76 66 60 65 62 53 47 40 17 1 350 353 1 43 66 73 83 96 83 78 91 97 101 101 112 111 125 125 153 175 198 224 236 254 260 267 280 285 256 215 209 219 220 225 232 235 234 229 220 213 208 200 196 197 199 199 202 210 216 217 216 209
70 68 61 61 56 58 54 39 15 359 353 353 0 34 50 51 47 55 63 63 45 45 53 61 63 81 94 149 175 191 203 211 214 221 229 244 247 253 263 271 245 170 199 211 221 225 227 226 222 219 213 208 198 195 190 197 207 207 211 212 214 212